Harlan, KY

11:25 PM EDT on July 20, 2017 (GMT -0400)
Harlan

Weather History for KI35 - May, 2013

Change the Weather History Date:

Wednesday, May 8, 2013

  Actual Average (KLOZ) Record (KLOZ)
Temperature  
Mean Temperature 60 °F -  
Max Temperature 66 °F 73 °F 88 °F (2015)
Min Temperature 53 °F 49 °F 32 °F (1989)
Degree Days  
Heating Degree Days 6    
Growing Degree Days 10 (Base 50)    
Moisture  
Dew Point 54 °F    
Average Humidity 86    
Maximum Humidity 100    
Minimum Humidity 60    
Precipitation  
Precipitation 0.00 in - - ()
Sea Level Pressure  
Sea Level Pressure 30.00 in    
Wind  
Wind Speed 2 mph (West)    
Max Wind Speed 10 mph    
Max Gust Speed 16 mph    
Visibility 6 miles    
Events      
Averages and records for this station are not official NWS values.
T = Trace of Precipitation, MM = Missing Value Source: NWS Daily Summary

Daily Weather History Graph

Daily Weather History Graph

Search for Another Location

Airport or City:

Trip Planner

Search our weather history database for the weather conditions in past years. The results will help you decide how hot, cold, wet, or windy it might be!

Date:

Astronomy

May. 08, 2013 Rise Set
Actual Time 6:31 AM EDT 8:28 PM EDT
Civil Twilight 6:03 AM EDT 8:57 PM EDT
Nautical Twilight 5:28 AM EDT 9:31 PM EDT
Astronomical Twilight 4:51 AM EDT 10:08 PM EDT
Moon 5:37 AM EDT (5/8) 7:26 PM EDT (5/8)
Length of Visible Light 14h 53m
Length of Day
13h 56m
Waning Crescent, 2% of the Moon is Illuminated
May 8
Waning Crescent
May 9
New
May 18
First Quarter
May 25
Full
May 31
Last Quarter

Hourly Weather History & Observations

Time (EDT) Temp. Dew Point Humidity Pressure Visibility Wind Dir Wind Speed Gust Speed Precip Events Conditions
12:15 AM 53.6 °F 53.6 °F 100% 29.97 in 2.5 mi Calm Calm - N/A   Overcast
12:35 AM 53.6 °F 53.6 °F 100% 29.97 in 1.0 mi West 3.5 mph - N/A   Overcast
12:55 AM 53.6 °F 51.8 °F 94% 29.97 in 0.2 mi Calm Calm - N/A   Overcast
1:15 AM 53.6 °F 51.8 °F 94% 29.96 in 0.2 mi Calm Calm - N/A   Overcast
1:35 AM 53.6 °F 51.8 °F 94% 29.96 in 0.2 mi Calm Calm - N/A   Overcast
1:55 AM 53.6 °F 51.8 °F 94% 29.95 in 0.2 mi Calm Calm - N/A   Overcast
2:15 AM 53.6 °F 51.8 °F 94% 29.95 in 0.5 mi Calm Calm - N/A   Overcast
2:35 AM 53.6 °F 51.8 °F 94% 29.94 in 0.5 mi Calm Calm - N/A   Overcast
2:55 AM 53.6 °F 51.8 °F 94% 29.94 in 0.2 mi Calm Calm - N/A   Overcast
3:15 AM 53.6 °F 51.8 °F 94% 29.94 in 0.8 mi Calm Calm - N/A   Overcast
3:35 AM 53.6 °F 51.8 °F 94% 29.93 in 0.5 mi Calm Calm - N/A   Overcast
3:55 AM 53.6 °F 51.8 °F 94% 29.93 in 0.5 mi WNW 3.5 mph - N/A   Overcast
4:15 AM 53.6 °F 51.8 °F 94% 29.94 in 0.2 mi SSE 3.5 mph - N/A   Overcast
4:35 AM 53.6 °F 51.8 °F 94% 29.94 in 0.2 mi Calm Calm - N/A   Overcast
4:55 AM 53.6 °F 51.8 °F 94% 29.94 in 0.2 mi Calm Calm - N/A   Overcast
5:15 AM 53.6 °F 51.8 °F 94% 29.94 in 0.5 mi Calm Calm - N/A   Overcast
5:35 AM 53.6 °F 53.6 °F 100% 29.95 in 0.5 mi Calm Calm - N/A   Overcast
5:55 AM 53.6 °F 53.6 °F 100% 29.95 in 0.5 mi Calm Calm - N/A   Overcast
6:15 AM 53.6 °F 51.8 °F 94% 29.95 in 1.0 mi Calm Calm - N/A   Overcast
6:35 AM 53.6 °F 53.6 °F 100% 29.96 in 1.5 mi Calm Calm - N/A   Overcast
6:55 AM 53.6 °F 53.6 °F 100% 29.96 in 2.0 mi Calm Calm - N/A   Overcast
7:15 AM 53.6 °F 53.6 °F 100% 29.97 in 4.0 mi Calm Calm - N/A   Overcast
7:35 AM 53.6 °F 53.6 °F 100% 29.98 in 4.0 mi Calm Calm - N/A   Overcast
7:55 AM 53.6 °F 53.6 °F 100% 29.99 in 4.0 mi Calm Calm - N/A   Overcast
8:15 AM 55.4 °F 53.6 °F 94% 29.99 in 7.0 mi Calm Calm - N/A   Overcast
8:35 AM 55.4 °F 53.6 °F 94% 29.99 in 10.0 mi Calm Calm - N/A   Overcast
8:55 AM 55.4 °F 53.6 °F 94% 29.99 in 7.0 mi WSW 3.5 mph - N/A   Overcast
9:15 AM 55.4 °F 53.6 °F 94% 30.00 in 10.0 mi West 4.6 mph - N/A   Overcast
9:35 AM 57.2 °F 53.6 °F 88% 30.00 in 10.0 mi WSW 4.6 mph - N/A   Overcast
9:55 AM 59.0 °F 53.6 °F 82% 30.01 in 10.0 mi WSW 4.6 mph - N/A   Overcast
10:15 AM 59.0 °F 53.6 °F 82% 30.01 in 10.0 mi West 5.8 mph - N/A   Overcast
10:35 AM 60.8 °F 53.6 °F 77% 30.01 in 10.0 mi Calm Calm - N/A   Overcast
10:55 AM 60.8 °F 53.6 °F 77% 30.01 in 10.0 mi West 6.9 mph - N/A   Overcast
11:15 AM 62.6 °F 53.6 °F 72% 30.01 in 10.0 mi Calm Calm - N/A   Overcast
11:35 AM 60.8 °F 53.6 °F 77% 30.01 in 10.0 mi WSW 5.8 mph - N/A   Overcast
11:55 AM 62.6 °F 53.6 °F 72% 30.01 in 10.0 mi WSW 10.4 mph 16.1 mph N/A   Overcast
12:15 PM 64.4 °F 53.6 °F 68% 30.02 in 10.0 mi WSW 3.5 mph - N/A   Overcast
12:35 PM 64.4 °F 53.6 °F 68% 30.01 in 10.0 mi WNW 8.1 mph - N/A   Mostly Cloudy
12:55 PM 66.2 °F 51.8 °F 60% 30.01 in 10.0 mi WSW 6.9 mph - N/A   Mostly Cloudy
1:15 PM 64.4 °F 51.8 °F 64% 30.01 in 10.0 mi WSW 4.6 mph - N/A   Overcast
1:35 PM 64.4 °F 51.8 °F 64% 30.00 in 10.0 mi WNW 5.8 mph - N/A   Overcast
1:55 PM 66.2 °F 51.8 °F 60% 30.00 in 10.0 mi NNW 3.5 mph - N/A   Mostly Cloudy
2:15 PM 64.4 °F 51.8 °F 64% 30.01 in 10.0 mi West 8.1 mph - N/A   Overcast
2:35 PM 62.6 °F 53.6 °F 72% 30.01 in 10.0 mi West 9.2 mph - N/A   Overcast
2:55 PM 62.6 °F 53.6 °F 72% 30.01 in 10.0 mi West 8.1 mph - N/A   Overcast
3:15 PM 64.4 °F 53.6 °F 68% 30.01 in 10.0 mi North - - N/A   Mostly Cloudy
3:35 PM 64.4 °F 53.6 °F 68% 30.01 in 10.0 mi West 3.5 mph - N/A   Mostly Cloudy
3:55 PM 64.4 °F 53.6 °F 68% 30.01 in 10.0 mi SW 6.9 mph - N/A   Overcast
4:15 PM 62.6 °F 55.4 °F 77% 30.01 in 10.0 mi WNW 5.8 mph - N/A   Overcast
4:35 PM 64.4 °F 55.4 °F 73% 30.01 in 10.0 mi West 3.5 mph - N/A   Mostly Cloudy
4:55 PM 64.4 °F 55.4 °F 73% 30.01 in 10.0 mi North - - N/A   Overcast
5:15 PM 66.2 °F 55.4 °F 68% 30.01 in 10.0 mi WSW 3.5 mph - N/A   Mostly Cloudy
5:35 PM 64.4 °F 55.4 °F 73% 30.01 in 10.0 mi West 6.9 mph - N/A   Overcast
5:55 PM 64.4 °F 55.4 °F 73% 30.01 in 10.0 mi WNW 5.8 mph - N/A   Overcast
6:15 PM 62.6 °F 57.2 °F 82% 30.02 in 7.0 mi North 3.5 mph - N/A   Overcast
6:35 PM 60.8 °F 55.4 °F 82% 30.03 in 5.0 mi NNW 6.9 mph - N/A   Overcast
6:55 PM 60.8 °F 59.0 °F 94% 30.03 in 10.0 mi Calm Calm - N/A   Overcast
7:15 PM 60.8 °F 59.0 °F 94% 30.03 in 10.0 mi Calm Calm - N/A   Overcast
7:35 PM 60.8 °F 57.2 °F 88% 30.04 in 4.0 mi Calm Calm - N/A   Overcast
7:55 PM 59.0 °F 57.2 °F 94% 30.06 in 4.0 mi NW 3.5 mph - N/A   Overcast
8:15 PM 59.0 °F 57.2 °F 94% 30.05 in 1.0 mi Calm Calm - N/A   Overcast
8:35 PM 59.0 °F 57.2 °F 94% 30.05 in 2.0 mi Calm Calm - N/A   Overcast
8:55 PM 59.0 °F 55.4 °F 88% 30.06 in 7.0 mi Calm Calm - N/A   Scattered Clouds
9:15 PM 57.2 °F 55.4 °F 94% 30.06 in 10.0 mi Calm Calm - N/A   Mostly Cloudy
9:35 PM 57.2 °F 55.4 °F 94% 30.06 in 10.0 mi Calm Calm - N/A   Overcast
9:55 PM 55.4 °F 53.6 °F 94% 30.06 in 10.0 mi Calm Calm - N/A   Scattered Clouds
10:15 PM 55.4 °F 53.6 °F 94% 30.06 in 4.0 mi Calm Calm - N/A   Scattered Clouds
10:35 PM 55.4 °F 53.6 °F 94% 30.07 in 2.0 mi Calm Calm - N/A   Overcast
10:55 PM 55.4 °F 53.6 °F 94% 30.07 in 1.2 mi Calm Calm - N/A   Overcast
11:15 PM 55.4 °F 53.6 °F 94% 30.08 in 0.2 mi Calm Calm - N/A   Overcast